Time,TemperatureF,DewpointF,PressureIn,WindDirection,WindDirectionDegrees,WindSpeedMPH,WindSpeedGustMPH,Humidity,HourlyPrecipIn,Conditions,Clouds,dailyrainin,SoftwareType,DateUTC
2013-02-03 00:04:00,-999.0,-99.9,30.04,WSW,238,9.0,11.0,-999,-99.99,,,-99.99,,2013-02-03 05:04:00,
2013-02-03 00:12:00,-999.0,-99.9,30.03,WSW,237,10.0,11.0,-999,-99.99,,,-99.99,,2013-02-03 05:12:00,
2013-02-03 00:23:00,-999.0,-99.9,30.03,WSW,253,11.0,11.0,-999,-99.99,,,-99.99,,2013-02-03 05:23:00,
2013-02-03 00:32:00,-999.0,-99.9,30.03,West,262,9.0,10.0,-999,-99.99,,,-99.99,,2013-02-03 05:32:00,
2013-02-03 00:42:00,-999.0,-99.9,30.02,West,263,6.0,8.0,-999,-99.99,,,-99.99,,2013-02-03 05:42:00,
2013-02-03 00:53:00,-999.0,-99.9,30.01,West,263,6.0,7.0,-999,-99.99,,,-99.99,,2013-02-03 05:53:00,
2013-02-03 01:02:00,32.0,-99.9,30.01,West,262,5.0,6.0,-999,-99.99,,,-99.99,,2013-02-03 06:02:00,
2013-02-03 01:11:00,-999.0,-99.9,30.00,WSW,246,4.0,5.0,-999,-99.99,,,-99.99,,2013-02-03 06:11:00,
2013-02-03 01:22:00,-999.0,-99.9,29.99,South,169,1.0,2.0,-999,-99.99,,,-99.99,,2013-02-03 06:22:00,
2013-02-03 01:32:00,31.0,-99.9,29.98,SSE,166,2.0,2.0,-999,-99.99,,,-99.99,,2013-02-03 06:32:00,
2013-02-03 01:42:00,-999.0,-99.9,29.98,South,173,3.0,3.0,-999,-99.99,,,-99.99,,2013-02-03 06:42:00,
2013-02-03 01:52:00,-999.0,-99.9,29.98,SE,143,2.0,2.0,-999,-99.99,,,-99.99,,2013-02-03 06:52:00,
2013-02-03 02:02:00,-999.0,-99.9,29.98,East,95,1.0,2.0,-999,-99.99,,,-99.99,,2013-02-03 07:02:00,
2013-02-03 02:11:00,-999.0,-99.9,29.98,ENE,65,0.0,1.0,-999,-99.99,,,-99.99,,2013-02-03 07:11:00,
2013-02-03 02:22:00,-999.0,-99.9,29.97,NNE,27,4.0,4.0,-999,-99.99,,,-99.99,,2013-02-03 07:22:00,
2013-02-03 02:32:00,30.0,-99.9,29.97,NE,43,1.0,2.0,-999,-99.99,,,-99.99,,2013-02-03 07:32:00,
2013-02-03 02:42:00,-999.0,-99.9,29.96,NNE,15,2.0,3.0,-999,-99.99,,,-99.99,,2013-02-03 07:42:00,
2013-02-03 02:52:00,-999.0,-99.9,29.96,NE,48,3.0,4.0,-999,-99.99,,,-99.99,,2013-02-03 07:52:00,
2013-02-03 03:02:00,29.0,-99.9,29.95,NE,48,2.0,3.0,-999,-99.99,,,-99.99,,2013-02-03 08:02:00,
2013-02-03 03:11:00,-999.0,-99.9,29.95,ENE,66,2.0,3.0,-999,-99.99,,,-99.99,,2013-02-03 08:11:00,
2013-02-03 03:22:00,29.0,-99.9,29.95,NE,54,1.0,2.0,-999,-99.99,,,-99.99,,2013-02-03 08:22:00,
2013-02-03 03:32:00,-999.0,-99.9,29.95,ENE,69,1.0,1.0,-999,-99.99,,,-99.99,,2013-02-03 08:32:00,
2013-02-03 03:42:00,-999.0,-99.9,29.94,NE,49,2.0,3.0,-999,-99.99,,,-99.99,,2013-02-03 08:42:00,
2013-02-03 03:52:00,-999.0,-99.9,29.93,NE,50,3.0,4.0,-999,-99.99,,,-99.99,,2013-02-03 08:52:00,
2013-02-03 04:03:00,29.0,-99.9,29.93,NE,49,2.0,3.0,-999,-99.99,,,-99.99,,2013-02-03 09:03:00,
2013-02-03 04:11:00,-999.0,-99.9,29.92,NNE,30,2.0,3.0,-999,-99.99,,,-99.99,,2013-02-03 09:11:00,
2013-02-03 04:22:00,-999.0,-99.9,29.92,North,8,2.0,3.0,-999,-99.99,,,-99.99,,2013-02-03 09:22:00,
2013-02-03 04:32:00,30.0,-99.9,29.92,North,2,3.0,4.0,-999,-99.99,,,-99.99,,2013-02-03 09:32:00,
2013-02-03 04:42:00,-999.0,-99.9,29.91,North,350,3.0,4.0,-999,-99.99,,,-99.99,,2013-02-03 09:42:00,
2013-02-03 04:52:00,-999.0,-99.9,29.91,North,357,3.0,4.0,-999,-99.99,,,-99.99,,2013-02-03 09:52:00,
2013-02-03 05:01:00,-999.0,-99.9,29.91,North,354,2.0,4.0,-999,-99.99,,,-99.99,,2013-02-03 10:01:00,
2013-02-03 05:11:00,-999.0,-99.9,29.91,North,-999,4.0,6.0,-999,-99.99,,,-99.99,,2013-02-03 10:11:00,
2013-02-03 05:22:00,-999.0,-99.9,29.91,North,358,4.0,7.0,-999,-99.99,,,-99.99,,2013-02-03 10:22:00,
2013-02-03 05:32:00,31.0,-99.9,29.92,North,356,4.0,6.0,-999,-99.99,,,-99.99,,2013-02-03 10:32:00,
2013-02-03 05:42:00,-999.0,-99.9,29.91,North,355,5.0,11.0,-999,-99.99,,,-99.99,,2013-02-03 10:42:00,
2013-02-03 05:53:00,-999.0,-99.9,29.91,North,8,5.0,11.0,-999,-99.99,,,-99.99,,2013-02-03 10:53:00,
2013-02-03 06:02:00,31.0,-99.9,29.91,North,10,4.0,10.0,-999,-99.99,,,-99.99,,2013-02-03 11:02:00,
2013-02-03 06:11:00,-999.0,-99.9,29.91,NNE,19,5.0,10.0,-999,-99.99,,,-99.99,,2013-02-03 11:11:00,
2013-02-03 06:22:00,30.0,-99.9,29.91,NNE,15,3.0,7.0,-999,-99.99,,,-99.99,,2013-02-03 11:22:00,
2013-02-03 06:32:00,-999.0,-99.9,29.91,NNE,31,3.0,7.0,-999,-99.99,,,-99.99,,2013-02-03 11:32:00,
2013-02-03 06:42:00,-999.0,-99.9,29.91,NNE,29,4.0,7.0,-999,-99.99,,,-99.99,,2013-02-03 11:42:00,
2013-02-03 06:52:00,-999.0,-99.9,29.92,NNE,26,2.0,5.0,-999,-99.99,,,-99.99,,2013-02-03 11:52:00,
2013-02-03 07:03:00,29.0,-99.9,29.92,North,10,4.0,7.0,-999,-99.99,,,-99.99,,2013-02-03 12:03:00,
2013-02-03 07:12:00,-999.0,-99.9,29.92,North,7,4.0,10.0,-999,-99.99,,,-99.99,,2013-02-03 12:12:00,
2013-02-03 07:22:00,-999.0,-99.9,29.92,NNE,15,4.0,8.0,-999,-99.99,,,-99.99,,2013-02-03 12:22:00,
2013-02-03 07:33:00,29.0,-99.9,29.92,NNE,16,6.0,11.0,-999,-99.99,,,-99.99,,2013-02-03 12:33:00,
2013-02-03 07:42:00,-999.0,-99.9,29.92,NE,35,4.0,6.0,-999,-99.99,,,-99.99,,2013-02-03 12:42:00,
2013-02-03 07:53:00,29.0,-99.9,29.92,NNE,24,4.0,7.0,-999,-99.99,,,-99.99,,2013-02-03 12:53:00,
2013-02-03 08:04:00,-999.0,-99.9,29.92,NE,42,3.0,6.0,-999,-99.99,,,-99.99,,2013-02-03 13:04:00,
2013-02-03 08:12:00,-999.0,-99.9,29.92,NNE,29,5.0,9.0,-999,-99.99,,,-99.99,,2013-02-03 13:12:00,
2013-02-03 08:22:00,-999.0,-99.9,29.92,North,2,4.0,7.0,-999,-99.99,,,-99.99,,2013-02-03 13:22:00,
2013-02-03 08:32:00,28.0,-99.9,29.93,NNE,16,5.0,9.0,-999,-99.99,,,-99.99,,2013-02-03 13:32:00,
2013-02-03 08:42:00,-999.0,-99.9,29.92,NNE,30,5.0,9.0,-999,-99.99,,,-99.99,,2013-02-03 13:42:00,
2013-02-03 08:53:00,-999.0,-99.9,29.93,NNE,29,5.0,8.0,-999,-99.99,,,-99.99,,2013-02-03 13:53:00,
2013-02-03 09:03:00,28.0,-99.9,29.93,NNE,20,6.0,9.0,-999,-99.99,,,-99.99,,2013-02-03 14:03:00,
2013-02-03 09:12:00,-999.0,-99.9,29.93,NNE,17,7.0,11.0,-999,-99.99,,,-99.99,,2013-02-03 14:12:00,
2013-02-03 09:22:00,28.0,-99.9,29.92,North,9,4.0,8.0,-999,-99.99,,,-99.99,,2013-02-03 14:22:00,
2013-02-03 09:32:00,-999.0,-99.9,29.92,NNE,23,6.0,9.0,-999,-99.99,,,-99.99,,2013-02-03 14:32:00,
2013-02-03 09:43:00,-999.0,-99.9,29.92,NNE,15,7.0,11.0,-999,-99.99,,,-99.99,,2013-02-03 14:43:00,
2013-02-03 09:52:00,-999.0,-99.9,29.92,North,11,5.0,9.0,-999,-99.99,,,-99.99,,2013-02-03 14:52:00,
2013-02-03 10:03:00,28.0,-99.9,29.92,NNE,25,4.0,6.0,-999,-99.99,,,-99.99,,2013-02-03 15:03:00,
2013-02-03 10:12:00,-999.0,-99.9,29.92,NNE,25,5.0,9.0,-999,-99.99,,,-99.99,,2013-02-03 15:12:00,
2013-02-03 10:23:00,-999.0,-99.9,29.91,North,6,7.0,10.0,-999,-99.99,,,-99.99,,2013-02-03 15:23:00,
2013-02-03 10:33:00,28.0,-99.9,29.91,NNE,20,7.0,10.0,-999,-99.99,,,-99.99,,2013-02-03 15:33:00,
2013-02-03 10:42:00,-999.0,-99.9,29.91,NNE,20,8.0,12.0,-999,-99.99,,,-99.99,,2013-02-03 15:42:00,
2013-02-03 10:52:00,29.0,-99.9,29.91,North,5,5.0,9.0,-999,-99.99,,,-99.99,,2013-02-03 15:52:00,
2013-02-03 11:03:00,-999.0,-99.9,29.91,North,-999,7.0,11.0,-999,-99.99,,,-99.99,,2013-02-03 16:03:00,
2013-02-03 11:12:00,-999.0,-99.9,29.90,NNE,24,4.0,8.0,-999,-99.99,,,-99.99,,2013-02-03 16:12:00,
2013-02-03 11:22:00,-999.0,-99.9,29.90,North,1,4.0,8.0,-999,-99.99,,,-99.99,,2013-02-03 16:22:00,
2013-02-03 11:33:00,-999.0,-99.9,29.89,NNE,13,5.0,10.0,-999,-99.99,,,-99.99,,2013-02-03 16:33:00,
2013-02-03 11:42:00,-999.0,-99.9,29.89,North,360,6.0,9.0,-999,-99.99,,,-99.99,,2013-02-03 16:42:00,
2013-02-03 11:52:00,-999.0,-99.9,29.88,North,5,6.0,9.0,-999,-99.99,,,-99.99,,2013-02-03 16:52:00,
2013-02-03 12:03:00,29.0,-99.9,29.88,NNE,12,4.0,8.0,-999,-99.99,,,-99.99,,2013-02-03 17:03:00,
2013-02-03 12:12:00,-999.0,-99.9,29.87,North,-999,6.0,10.0,-999,-99.99,,,-99.99,,2013-02-03 17:12:00,
2013-02-03 12:22:00,-999.0,-99.9,29.85,NNE,13,6.0,9.0,-999,-99.99,,,-99.99,,2013-02-03 17:22:00,
2013-02-03 12:32:00,30.0,-99.9,29.85,North,357,7.0,9.0,-999,-99.99,,,-99.99,,2013-02-03 17:32:00,
2013-02-03 12:42:00,-999.0,-99.9,29.84,North,357,7.0,10.0,-999,-99.99,,,-99.99,,2013-02-03 17:42:00,
2013-02-03 12:53:00,-999.0,-99.9,29.85,North,356,7.0,10.0,-999,-99.99,,,-99.99,,2013-02-03 17:53:00,
2013-02-03 13:03:00,-999.0,-99.9,29.85,NNW,345,7.0,9.0,-999,-99.99,,,-99.99,,2013-02-03 18:03:00,
2013-02-03 13:12:00,-999.0,-99.9,29.85,NNW,328,9.0,11.0,-999,-99.99,,,-99.99,,2013-02-03 18:12:00,
2013-02-03 13:23:00,-999.0,-99.9,29.84,NNW,330,10.0,12.0,-999,-99.99,,,-99.99,,2013-02-03 18:23:00,
2013-02-03 13:33:00,31.0,-99.9,29.84,NNW,327,9.0,12.0,-999,-99.99,,,-99.99,,2013-02-03 18:33:00,
2013-02-03 13:42:00,-999.0,-99.9,29.83,NW,325,8.0,11.0,-999,-99.99,,,-99.99,,2013-02-03 18:42:00,
2013-02-03 13:52:00,-999.0,-99.9,29.83,NNW,335,9.0,12.0,-999,-99.99,,,-99.99,,2013-02-03 18:52:00,
2013-02-03 14:03:00,31.0,-99.9,29.83,NW,323,7.0,9.0,-999,-99.99,,,-99.99,,2013-02-03 19:03:00,
2013-02-03 14:11:00,-999.0,-99.9,29.83,NW,312,10.0,13.0,-999,-99.99,,,-99.99,,2013-02-03 19:11:00,
2013-02-03 14:22:00,-999.0,-99.9,29.82,NW,320,8.0,10.0,-999,-99.99,,,-99.99,,2013-02-03 19:22:00,
2013-02-03 14:33:00,-999.0,-99.9,29.82,NW,320,5.0,11.0,-999,-99.99,,,-99.99,,2013-02-03 19:33:00,
2013-02-03 14:42:00,33.0,-99.9,29.82,NW,321,7.0,11.0,-999,-99.99,,,-99.99,,2013-02-03 19:42:00,
2013-02-03 14:52:00,33.0,-99.9,29.82,NW,310,9.0,13.0,-999,-99.99,,,-99.99,,2013-02-03 19:52:00,
2013-02-03 15:02:00,33.0,-99.9,29.82,NW,323,9.0,14.0,-999,-99.99,,,-99.99,,2013-02-03 20:02:00,
2013-02-03 15:12:00,-999.0,-99.9,29.82,NW,313,11.0,14.0,-999,-99.99,,,-99.99,,2013-02-03 20:12:00,
2013-02-03 15:22:00,31.0,-99.9,29.82,NW,313,11.0,13.0,-999,-99.99,,,-99.99,,2013-02-03 20:22:00,
2013-02-03 15:33:00,-999.0,-99.9,29.82,NW,323,10.0,13.0,-999,-99.99,,,-99.99,,2013-02-03 20:33:00,
2013-02-03 15:42:00,-999.0,-99.9,29.82,NW,320,13.0,16.0,-999,-99.99,,,-99.99,,2013-02-03 20:42:00,
2013-02-03 15:52:00,32.0,-99.9,29.82,NW,326,12.0,14.0,-999,-99.99,,,-99.99,,2013-02-03 20:52:00,
2013-02-03 16:04:00,32.0,-99.9,29.82,NW,320,10.0,12.0,-999,-99.99,,,-99.99,,2013-02-03 21:04:00,
2013-02-03 16:11:00,32.0,-99.9,29.82,NW,323,12.0,14.0,-999,-99.99,,,-99.99,,2013-02-03 21:11:00,
2013-02-03 16:22:00,32.0,-99.9,29.82,NW,326,11.0,13.0,-999,-99.99,,,-99.99,,2013-02-03 21:22:00,
2013-02-03 16:33:00,33.0,-99.9,29.82,NW,325,9.0,12.0,-999,-99.99,,,-99.99,,2013-02-03 21:33:00,
2013-02-03 16:42:00,33.0,-99.9,29.82,NNW,328,10.0,12.0,-999,-99.99,,,-99.99,,2013-02-03 21:42:00,
2013-02-03 16:52:00,33.0,-99.9,29.82,NNW,330,10.0,13.0,-999,-99.99,,,-99.99,,2013-02-03 21:52:00,
2013-02-03 17:02:00,33.0,-99.9,29.82,NNW,328,9.0,11.0,-999,-99.99,,,-99.99,,2013-02-03 22:02:00,
2013-02-03 17:11:00,32.0,-99.9,29.82,NW,321,7.0,9.0,-999,-99.99,,,-99.99,,2013-02-03 22:11:00,
2013-02-03 17:22:00,32.0,-99.9,29.82,NW,320,8.0,10.0,-999,-99.99,,,-99.99,,2013-02-03 22:22:00,
2013-02-03 17:32:00,32.0,-99.9,29.83,NW,314,9.0,10.0,-999,-99.99,,,-99.99,,2013-02-03 22:32:00,
2013-02-03 17:42:00,32.0,-99.9,29.83,NW,319,7.0,9.0,-999,-99.99,,,-99.99,,2013-02-03 22:42:00,
2013-02-03 17:52:00,32.0,-99.9,29.83,NW,323,9.0,11.0,-999,-99.99,,,-99.99,,2013-02-03 22:52:00,
2013-02-03 18:02:00,32.0,-99.9,29.83,NW,322,8.0,10.0,-999,-99.99,,,-99.99,,2013-02-03 23:02:00,
2013-02-03 18:12:00,33.0,-99.9,29.82,NW,319,7.0,10.0,-999,-99.99,,,-99.99,,2013-02-03 23:12:00,
2013-02-03 18:22:00,33.0,-99.9,29.83,NW,317,6.0,8.0,-999,-99.99,,,-99.99,,2013-02-03 23:22:00,
2013-02-03 18:33:00,33.0,-99.9,29.83,NW,314,7.0,10.0,-999,-99.99,,,-99.99,,2013-02-03 23:33:00,
2013-02-03 18:42:00,33.0,-99.9,29.83,NW,319,8.0,10.0,-999,-99.99,,,-99.99,,2013-02-03 23:42:00,
2013-02-03 18:52:00,33.0,-99.9,29.83,NW,310,9.0,11.0,-999,-99.99,,,-99.99,,2013-02-03 23:52:00,
2013-02-03 19:02:00,33.0,-99.9,29.83,NW,305,11.0,13.0,-999,-99.99,,,-99.99,,2013-02-04 00:02:00,
2013-02-03 19:11:00,33.0,-99.9,29.83,WNW,302,13.0,15.0,-999,-99.99,,,-99.99,,2013-02-04 00:11:00,
2013-02-03 19:22:00,33.0,-99.9,29.84,NW,304,13.0,17.0,-999,-99.99,,,-99.99,,2013-02-04 00:22:00,
2013-02-03 19:32:00,33.0,-99.9,29.84,WNW,296,14.0,18.0,-999,-99.99,,,-99.99,,2013-02-04 00:32:00,
2013-02-03 19:42:00,33.0,-99.9,29.84,WNW,290,12.0,14.0,-999,-99.99,,,-99.99,,2013-02-04 00:42:00,
2013-02-03 19:52:00,33.0,-99.9,29.84,WNW,296,13.0,15.0,-999,-99.99,,,-99.99,,2013-02-04 00:52:00,
2013-02-03 20:01:00,33.0,-99.9,29.84,WNW,292,11.0,14.0,-999,-99.99,,,-99.99,,2013-02-04 01:01:00,
2013-02-03 20:11:00,33.0,-99.9,29.84,WNW,293,11.0,13.0,-999,-99.99,,,-99.99,,2013-02-04 01:11:00,
2013-02-03 20:22:00,33.0,-99.9,29.85,WNW,303,11.0,12.0,-999,-99.99,,,-99.99,,2013-02-04 01:22:00,
2013-02-03 20:32:00,33.0,-99.9,29.85,NW,308,10.0,13.0,-999,-99.99,,,-99.99,,2013-02-04 01:32:00,
2013-02-03 20:42:00,33.0,-99.9,29.85,NW,305,11.0,13.0,-999,-99.99,,,-99.99,,2013-02-04 01:42:00,
2013-02-03 20:52:00,33.0,-99.9,29.85,WNW,298,11.0,14.0,-999,-99.99,,,-99.99,,2013-02-04 01:52:00,
2013-02-03 21:02:00,33.0,-99.9,29.85,WNW,302,11.0,13.0,-999,-99.99,,,-99.99,,2013-02-04 02:02:00,
2013-02-03 21:11:00,33.0,-99.9,29.85,WNW,296,10.0,12.0,-999,-99.99,,,-99.99,,2013-02-04 02:11:00,
2013-02-03 21:22:00,33.0,-99.9,29.85,WNW,294,10.0,13.0,-999,-99.99,,,-99.99,,2013-02-04 02:22:00,
2013-02-03 21:32:00,33.0,-99.9,29.85,WNW,294,10.0,12.0,-999,-99.99,,,-99.99,,2013-02-04 02:32:00,
2013-02-03 21:42:00,33.0,-99.9,29.85,WNW,302,10.0,12.0,-999,-99.99,,,-99.99,,2013-02-04 02:42:00,
2013-02-03 21:52:00,33.0,-99.9,29.85,WNW,300,9.0,11.0,-999,-99.99,,,-99.99,,2013-02-04 02:52:00,
2013-02-03 22:02:00,33.0,-99.9,29.85,WNW,291,10.0,13.0,-999,-99.99,,,-99.99,,2013-02-04 03:02:00,
2013-02-03 22:11:00,33.0,-99.9,29.85,West,281,12.0,15.0,-999,-99.99,,,-99.99,,2013-02-04 03:11:00,
2013-02-03 22:21:00,33.0,-99.9,29.86,West,280,12.0,14.0,-999,-99.99,,,-99.99,,2013-02-04 03:21:00,
2013-02-03 22:32:00,33.0,-99.9,29.85,WNW,285,14.0,16.0,-999,-99.99,,,-99.99,,2013-02-04 03:32:00,
2013-02-03 22:42:00,33.0,-99.9,29.86,West,279,12.0,15.0,-999,-99.99,,,-99.99,,2013-02-04 03:42:00,
2013-02-03 22:52:00,33.0,-99.9,29.86,WNW,283,14.0,16.0,-999,-99.99,,,-99.99,,2013-02-04 03:52:00,
2013-02-03 23:02:00,33.0,-99.9,29.85,West,279,15.0,17.0,-999,-99.99,,,-99.99,,2013-02-04 04:02:00,
2013-02-03 23:11:00,33.0,-99.9,29.85,West,273,16.0,18.0,-999,-99.99,,,-99.99,,2013-02-04 04:11:00,
2013-02-03 23:22:00,33.0,-99.9,29.85,West,279,17.0,19.0,-999,-99.99,,,-99.99,,2013-02-04 04:22:00,
2013-02-03 23:32:00,33.0,-99.9,29.85,West,274,17.0,20.0,-999,-99.99,,,-99.99,,2013-02-04 04:32:00,
2013-02-03 23:42:00,34.0,-99.9,29.86,WNW,284,18.0,21.0,-999,-99.99,,,-99.99,,2013-02-04 04:42:00,
2013-02-03 23:52:00,34.0,-99.9,29.85,WNW,292,18.0,25.0,-999,-99.99,,,-99.99,,2013-02-04 04:52:00,